Aurora, NE

12:59 PM CDT on June 26, 2017 (GMT -0500)
Aurora Municipal

Weather History for KAUH - February, 2014

Change the Weather History Date:

Thursday, February 27, 2014

  Actual Average Record
Temperature  
Mean Temperature 16 °F -  
Max Temperature 27 °F 48 °F 74 °F (2016)
Min Temperature 4 °F 25 °F -7 °F (2015)
Degree Days  
Heating Degree Days 50    
Moisture  
Dew Point 2 °F    
Average Humidity 54    
Maximum Humidity 79    
Minimum Humidity 32    
Precipitation  
Precipitation 0.00 in - - ()
Sea Level Pressure  
Sea Level Pressure 29.96 in    
Wind  
Wind Speed 10 mph (East)    
Max Wind Speed 18 mph    
Max Gust Speed 22 mph    
Visibility 10 miles    
Events      
Averages and records for this station are not official NWS values.
T = Trace of Precipitation, MM = Missing Value Source: NWS Daily Summary

Daily Weather History Graph

Daily Weather History Graph

Search for Another Location

Airport or City:

Trip Planner

Search our weather history database for the weather conditions in past years. The results will help you decide how hot, cold, wet, or windy it might be!

Date:

Astronomy

Feb. 27, 2014 Rise Set
Actual Time 7:09 AM CST 6:20 PM CST
Civil Twilight 6:41 AM CST 6:48 PM CST
Nautical Twilight 6:09 AM CST 7:20 PM CST
Astronomical Twilight 5:37 AM CST 7:52 PM CST
Moon 5:43 AM CST (2/27) 4:47 PM CST (2/27)
Length of Visible Light 12h 07m
Length of Day
11h 11m
Waning Crescent, 4% of the Moon is Illuminated
Feb 27
Waning Crescent
Mar 1
New
Mar 8
First Quarter
Mar 16
Full
Mar 23
Last Quarter

Hourly Weather History & Observations

Time (CST) Temp. Windchill Dew Point Humidity Pressure Visibility Wind Dir Wind Speed Gust Speed Precip Events Conditions
12:20 AM 17.2 °F 8.9 °F 10.2 °F 74% 29.99 in 10.0 mi NW 5.8 mph - N/A   Clear
12:35 AM 17.2 °F 8.9 °F 10.0 °F 73% 29.99 in 10.0 mi NW 5.8 mph - N/A   Clear
12:55 AM 13.5 °F 2.2 °F 7.3 °F 77% 30.00 in 10.0 mi NW 8.1 mph - N/A   Clear
1:15 AM 16.0 °F 4.4 °F 9.0 °F 74% 30.00 in 10.0 mi NNW 9.2 mph - N/A   Clear
1:35 AM 16.7 °F 5.3 °F 9.5 °F 73% 30.01 in 10.0 mi NNW 9.2 mph - N/A   Clear
1:55 AM 17.2 °F 7.8 °F 10.0 °F 73% 30.01 in 10.0 mi North 6.9 mph - N/A   Clear
2:15 AM 16.0 °F 5.3 °F 9.0 °F 74% 30.02 in 10.0 mi North 8.1 mph - N/A   Clear
2:35 AM 15.6 °F 4.9 °F 9.9 °F 78% 30.03 in 10.0 mi NNE 8.1 mph - N/A   Clear
2:55 AM 15.6 °F 2.5 °F 10.2 °F 79% 30.03 in 10.0 mi NNE 11.5 mph - N/A   Clear
3:15 AM 15.3 °F -0.4 °F 6.3 °F 68% 30.03 in 10.0 mi NNE 16.1 mph - N/A   Clear
3:35 AM 14.0 °F -1.4 °F 3.9 °F 64% 30.03 in 10.0 mi NE 15.0 mph - N/A   Clear
3:55 AM 12.2 °F -1.8 °F 3.9 °F 69% 30.02 in 10.0 mi NE 11.5 mph - N/A   Clear
4:15 AM 11.3 °F -3.6 °F 3.9 °F 72% 30.02 in 10.0 mi NE 12.7 mph - N/A   Clear
4:35 AM 11.1 °F -3.2 °F 3.2 °F 70% 30.03 in 10.0 mi NE 11.5 mph - N/A   Clear
4:55 AM 10.0 °F -1.9 °F 2.3 °F 71% 30.05 in 10.0 mi NNE 8.1 mph - N/A   Clear
5:15 AM 9.0 °F -3.2 °F 1.4 °F 71% 30.06 in 10.0 mi NNE 8.1 mph - N/A   Clear
5:35 AM 7.9 °F -2.2 °F 0.9 °F 73% 30.06 in 10.0 mi NNE 5.8 mph - N/A   Clear
5:55 AM 7.5 °F - 0.3 °F 72% 30.08 in 10.0 mi Calm Calm - N/A   Clear
6:15 AM 6.8 °F -4.8 °F -0.4 °F 72% 30.08 in 10.0 mi NNE 6.9 mph - N/A   Clear
6:35 AM 5.9 °F -5.8 °F -0.4 °F 75% 30.08 in 10.0 mi NE 6.9 mph - N/A   Clear
6:55 AM 5.0 °F -5.6 °F -0.8 °F 77% 30.08 in 10.0 mi NE 5.8 mph - N/A   Clear
7:15 AM 5.5 °F -1.5 °F -0.4 °F 77% 30.08 in 10.0 mi ENE 3.5 mph - N/A   Clear
7:35 AM 4.8 °F -5.8 °F -0.6 °F 78% 30.08 in 10.0 mi NE 5.8 mph - N/A   Clear
7:55 AM 7.7 °F -2.4 °F 1.9 °F 77% 30.09 in 10.0 mi NE 5.8 mph - N/A   Clear
8:15 AM 9.3 °F -3.8 °F 3.0 °F 76% 30.09 in 10.0 mi ENE 9.2 mph - N/A   Clear
8:40 AM 10.8 °F -4.3 °F 3.2 °F 72% 30.08 in 10.0 mi East 12.7 mph - N/A   Clear
8:55 AM 11.3 °F -2.2 °F 3.4 °F 70% 30.09 in 10.0 mi East 10.4 mph - N/A   Clear
9:15 AM 12.2 °F -1.8 °F 3.7 °F 69% 30.08 in 10.0 mi East 11.5 mph - N/A   Clear
9:35 AM 13.1 °F 0.1 °F 3.7 °F 66% 30.08 in 10.0 mi East 10.4 mph - N/A   Clear
9:55 AM 14.5 °F 0.5 °F 4.3 °F 64% 30.08 in 10.0 mi East 12.7 mph - N/A   Clear
10:15 AM 15.6 °F 1.8 °F 4.1 °F 60% 30.07 in 10.0 mi ESE 12.7 mph 18.4 mph N/A   Clear
10:35 AM 16.3 °F 2.7 °F 3.7 °F 58% 30.07 in 10.0 mi ESE 12.7 mph - N/A   Clear
10:55 AM 18.1 °F 5.0 °F 4.1 °F 54% 30.06 in 10.0 mi East 12.7 mph - N/A   Clear
11:15 AM 18.9 °F 5.9 °F 4.5 °F 54% 30.05 in 10.0 mi ESE 12.7 mph - N/A   Scattered Clouds
11:35 AM 19.4 °F 6.0 °F 2.8 °F 49% 30.04 in 10.0 mi SE 13.8 mph 18.4 mph N/A   Mostly Cloudy
11:55 AM 20.1 °F 7.5 °F 2.7 °F 47% 30.03 in 10.0 mi ESE 12.7 mph 19.6 mph N/A   Mostly Cloudy
12:15 PM 20.5 °F 9.2 °F 1.8 °F 44% 30.02 in 10.0 mi ESE 10.4 mph 17.3 mph N/A   Mostly Cloudy
12:35 PM 21.0 °F 8.6 °F 2.1 °F 44% 30.01 in 10.0 mi East 12.7 mph - N/A   Overcast
12:55 PM 21.7 °F 9.0 °F 1.2 °F 41% 29.99 in 10.0 mi ESE 13.8 mph - N/A   Overcast
1:15 PM 21.7 °F 9.0 °F -1.1 °F 37% 29.98 in 10.0 mi ESE 13.8 mph 17.3 mph N/A   Overcast
1:35 PM 23.5 °F 11.8 °F -0.9 °F 35% 29.96 in 10.0 mi ESE 12.7 mph 19.6 mph N/A   Overcast
1:55 PM 24.1 °F 12.0 °F -1.1 °F 33% 29.95 in 10.0 mi SE 13.8 mph 18.4 mph N/A   Overcast
2:15 PM 24.8 °F 12.9 °F -1.1 °F 33% 29.94 in 10.0 mi SE 13.8 mph - N/A   Overcast
2:35 PM 26.1 °F 14.5 °F -0.4 °F 32% 29.93 in 10.0 mi SE 13.8 mph 19.6 mph N/A   Mostly Cloudy
2:55 PM 27.0 °F 15.2 °F 1.8 °F 34% 29.92 in 10.0 mi ESE 15.0 mph 19.6 mph N/A   Mostly Cloudy
3:15 PM 27.5 °F 16.8 °F 3.0 °F 35% 29.92 in 10.0 mi ESE 12.7 mph - N/A   Mostly Cloudy
3:35 PM 27.5 °F 16.8 °F 3.6 °F 36% 29.91 in 10.0 mi SSE 12.7 mph 20.7 mph N/A   Clear
3:55 PM 27.5 °F 15.9 °F 3.0 °F 35% 29.90 in 10.0 mi SE 15.0 mph 19.6 mph N/A   Clear
4:15 PM 27.1 °F 15.4 °F 2.1 °F 34% 29.89 in 10.0 mi ESE 15.0 mph - N/A   Clear
4:35 PM 27.3 °F 15.6 °F 1.9 °F 34% 29.88 in 10.0 mi SE 15.0 mph 21.9 mph N/A   Clear
4:50 PM 26.8 °F 14.9 °F 1.2 °F 33% 29.88 in 10.0 mi SSE 15.0 mph - N/A   Clear
5:15 PM 26.4 °F 15.0 °F 0.1 °F 32% 29.88 in 10.0 mi SE 13.8 mph - N/A   Clear
5:35 PM 25.5 °F 13.8 °F 0.3 °F 34% 29.88 in 10.0 mi SE 13.8 mph - N/A   Clear
5:55 PM 24.8 °F 12.9 °F 0.5 °F 35% 29.87 in 10.0 mi SE 13.8 mph - N/A   Clear
6:15 PM 23.5 °F 12.4 °F 1.4 °F 38% 29.86 in 10.0 mi SE 11.5 mph - N/A   Clear
6:35 PM 22.6 °F 10.7 °F 2.1 °F 41% 29.86 in 10.0 mi SE 12.7 mph - N/A   Clear
6:55 PM 21.7 °F 9.0 °F 1.4 °F 41% 29.85 in 10.0 mi ESE 13.8 mph 18.4 mph N/A   Clear
7:15 PM 21.2 °F 8.3 °F 1.4 °F 42% 29.85 in 10.0 mi ESE 13.8 mph - N/A   Clear
7:35 PM 21.0 °F 7.6 °F 0.9 °F 42% 29.85 in 10.0 mi ESE 15.0 mph - N/A   Clear
7:55 PM 20.3 °F 6.6 °F 0.9 °F 43% 29.84 in 10.0 mi ESE 15.0 mph - N/A   Clear
8:15 PM 19.8 °F 5.9 °F 0.5 °F 43% 29.82 in 10.0 mi ESE 15.0 mph - N/A   Clear
8:35 PM 19.4 °F 4.5 °F 0.1 °F 43% 29.82 in 10.0 mi ESE 17.3 mph - N/A   Clear
8:55 PM 19.0 °F 4.5 °F -0.0 °F 43% 29.81 in 10.0 mi ESE 16.1 mph 19.6 mph N/A   Clear
9:15 PM 19.4 °F 4.1 °F -0.4 °F 42% 29.81 in 10.0 mi SE 18.4 mph - N/A   Clear
9:35 PM 19.4 °F 4.5 °F -0.4 °F 42% 29.80 in 10.0 mi SE 17.3 mph - N/A   Clear
9:55 PM 19.4 °F 4.1 °F -0.4 °F 42% 29.80 in 10.0 mi SE 18.4 mph - N/A   Clear
10:15 PM 19.4 °F 4.1 °F -0.4 °F 42% 29.79 in 10.0 mi SE 18.4 mph - N/A   Clear
10:35 PM 19.0 °F 6.1 °F -0.4 °F 43% 29.79 in 10.0 mi SE 12.7 mph - N/A   Clear
10:55 PM 19.0 °F 4.5 °F -0.4 °F 43% 29.78 in 10.0 mi SE 16.1 mph 21.9 mph N/A   Clear
11:15 PM 18.9 °F 5.3 °F 0.1 °F 44% 29.77 in 10.0 mi SE 13.8 mph - N/A   Clear
11:35 PM 18.3 °F 5.2 °F 0.3 °F 45% 29.76 in 10.0 mi SE 12.7 mph - N/A   Clear
11:55 PM 18.1 °F 5.6 °F 0.5 °F 46% 29.76 in 10.0 mi SE 11.5 mph - N/A   Clear